sat.trackr.live / text

‹ back to catalog

STARLINK-3190

NORAD 49766 · 2021-115AU

PAYLOAD ACTIVE UNKNOWN

§ Identity

Operator
Country
US
Launch date
2021-12-02
Launch site
AFETR
Launch vehicle
Mass (kg)
RCS (m²)

Purposes: comms

External: N2YO · Heavens-Above · Gunter

§ Orbital elements

Epoch: 2026-05-24T10:24:19.801728Z

Period
95.44 min
Inclination
53.2146°
Eccentricity
0.0000996
Mean motion
15.08841853 rev/d
Perigee alt
539.0 km
Apogee alt
540.4 km
Semi-major
6,917.9 km
B*
6.0255e-5
RAAN
159.1017°
Arg perigee
69.1172°
Mean anomaly
290.9927°
Rev number
24,711

§ Raw data

STARLINK-31901 49766U 21115AU  26144.43356252  .00000671  00000+0  60255-4 0  99942 49766  53.2146 159.1017 0000996  69.1172 290.9927 15.08841853247115

JSON: /api/v1/satellites/49766 · /tle

For live sub-satellite position, see the globe view (requires WebGL).

§ Visibility from observer

Set your observer location to see the next 7 days of passes ≥ 10°. The values pass through the URL so the page stays shareable.

No JS? Fill the form by hand. The geolocation button needs JavaScript.